This is the latest recevied weather packets stored in our database for station/object N1JOV-7. If no packets are shown the sender has not sent any weather packets the latest 10 day(s).
| Time | Temp. | Humidity | Pressure | Rain* | Wind** | Luminosity | Snow |
|---|---|---|---|---|---|---|---|
| 1777581662 | 7.78° C | 99% | 1006.3 hPa | 0 mm | - | - | - |
| 1777581061 | 7.78° C | 99% | 1006.3 hPa | 1.02 mm | - | - | - |
| 1777580461 | 7.78° C | 99% | 1006.7 hPa | 1.27 mm | - | - | - |
| 1777579861 | 7.78° C | 99% | 1006.9 hPa | 0 mm | - | - | - |
| 1777579262 | 7.78° C | 99% | 1007 hPa | 0 mm | - | - | - |
| 1777578662 | 7.78° C | 99% | 1006.9 hPa | 0.76 mm | - | - | - |
| 1777578062 | 7.78° C | 99% | 1007 hPa | 0.76 mm | - | - | - |
| 1777577462 | 7.78° C | 99% | 1007.2 hPa | 0 mm | - | - | - |
| 1777576862 | 7.78° C | 99% | 1007.5 hPa | 1.27 mm | - | - | - |
| 1777576262 | 7.78° C | 99% | 1007.7 hPa | 0.76 mm | - | - | - |
| 1777575661 | 7.22° C | 99% | 1007.7 hPa | 4.06 mm | - | - | - |
| 1777575061 | 7.22° C | 99% | 1007.4 hPa | 7.87 mm | - | - | - |
| 1777574461 | 7.22° C | 99% | 1007.9 hPa | 7.11 mm | - | - | - |
| 1777573862 | 7.22° C | 99% | 1008 hPa | 4.57 mm | - | - | - |
| 1777573262 | 7.22° C | 99% | 1008.1 hPa | 3.56 mm | - | - | - |
| 1777572662 | 7.78° C | 99% | 1008.1 hPa | 2.29 mm | - | - | - |
| 1777572062 | 7.22° C | 99% | 1008.2 hPa | 0.25 mm | - | - | - |
| 1777571462 | 7.22° C | 99% | 1008.2 hPa | 0.76 mm | - | - | - |
| 1777570862 | 7.22° C | 99% | 1007.9 hPa | 1.27 mm | - | - | - |
| 1777570261 | 7.22° C | 99% | 1007.8 hPa | 1.27 mm | - | - | - |
| 1777569661 | 7.78° C | 99% | 1007.9 hPa | 0 mm | - | - | - |
| 1777569062 | 7.78° C | 99% | 1008 hPa | 2.03 mm | - | - | - |
| 1777568462 | 7.78° C | 99% | 1008.7 hPa | 0.76 mm | - | - | - |
| 1777567862 | 7.78° C | 99% | 1008.6 hPa | 0 mm | - | - | - |
| 1777567262 | 7.78° C | 99% | 1008.5 hPa | 0 mm | - | - | - |
* Rain latest hour (hover to see other rain measurements)
** Current wind speed in m/s (hover to see current wind gust speed)